Regional Weather Roundup
Issued by NWS

Home | Current Version | Previous Version | Text Only | Print | Product List | Glossary On
Versions: 1 2 3 4 5 6 7 8 9 10 11 12 13 14 15 16 17 18 19 20 21 22 23 24 25 26 27 28 29 30 31 32 33 34 35 36 37 38 39 40 41 42 43 44 45 46 47 48 49 50
000
ASUS43 KTOP 250908
RWRKS

WEATHER ROUNDUP FOR KANSAS
NATIONAL WEATHER SERVICE GOODLAND KS
400 AM CDT WED MAY 25 2016

NOTE:  "FAIR" INDICATES FEW OR NO CLOUDS BELOW 12,000 FEET WITH NO
SIGNIFICANT WEATHER AND/OR OBSTRUCTIONS TO VISIBILITY.

KSZ001>006-013>018-027>032-041>047-251000-
NORTHWEST KANSAS

CITY           SKY/WX    TMP DP  RH WIND       PRES   REMARKS
GOODLAND       FOG       57  57 100 S13       29.76S VSB 1/4
HAYS           CLOUDY    55  52  88 SE17G26   29.76R
HILL CITY      CLOUDY    63  55  75 NE12      29.79R
RUSSELL        CLOUDY    63  54  72 SE25G33   29.75F
$$

KSZ061>065-074>080-084>089-251000-
SOUTHWEST KANSAS

CITY           SKY/WX    TMP DP  RH WIND       PRES   REMARKS
DODGE CITY     CLOUDY    69  68  96 S13       29.76S
ELKHART          N/A     60  34  37 W6          N/A
GARDEN CITY    CLEAR     66  65  96 SW10      29.74S
GREAT BEND     CLOUDY    63  52  67 SE17      29.78S
LIBERAL        CLEAR     66  61  82 S12       29.78F
PRATT          CLOUDY    59  56  91 E16       29.81F
$$

KSZ066>073-081>083-090>101-251000-
SOUTHEAST KANSAS

CITY           SKY/WX    TMP DP  RH WIND       PRES   REMARKS
CHANUTE        LGT RAIN  66  59  78 N13       29.96R
COFFEYVILLE    LGT RAIN  68  60  75 NE8       29.95R
HUTCHINSON     CLOUDY    63  60  90 SE14G26   29.83F
MEDICINE LODGE   N/A     67  63  87 E16G26    29.82S
NEWTON         CLOUDY    61  57  88 SE14G24   29.88F
PARSONS        CLOUDY    68  60  75 N8        29.96R
WICHITA INTL   CLOUDY    64  62  93 SE14      29.86F
WICHITA JABRA  CLOUDY    62  62 100 E13       29.86F
WICHITA MCCONL CLOUDY    63  61  94 SE14      29.87F
WINFIELD       LGT RAIN  66  64  93 E10       29.89F
$$

KSZ007>012-019>026-033>040-048>060-102>105-251000-
NORTHEAST KANSAS

CITY           SKY/WX    TMP DP  RH WIND       PRES   REMARKS
CONCORDIA      CLOUDY    61  57  87 SE16      29.78R
EMPORIA        LGT RAIN  64  59  83 SE25G33   29.86F
LAWRENCE       LGT RAIN  62  61  96 SW21G26   29.97R FOG
MANHATTAN      LGT RAIN  63  62  97 CALM      29.80F
MARYSVILLE     CLOUDY    61  61 100 SE13      29.78R
OLATHE IND     LGT RAIN  63  61  93 W17G24    29.95S
OLATHE EXE     LGT RAIN  63  60  90 W6        29.92F
SALINA         CLOUDY    63  59  87 SE10      29.81F
TOPEKA BILLARD LGT RAIN  65  59  81 SE26G44   29.82F
TOPEKA FORBES  LGT RAIN  65  60  84 SE28G37   29.82F
$$




USA.gov is the U.S. government's official web portal to all federal, state and local government web resources and services.